Flag for U.S.A. Weather past 2 weeks in Tulsa, Oklahoma, U.S.A.

41 °F

Drizzle. Fog.

Feels Like: 37 °F
Forecast: 33 / 45 °F
Wind: 6 mph from North

Location: Tulsa International Airport

Current Time: Nov 30, 2015 at 4:07:27 AM

Latest Report: Nov 30, 2015 at 2:53 AM

Visibility: 3 mi

Pressure: 30.04 "Hg

Humidity: 100%

Dew point: 41 °F

Location of TulsaLocation

Historic Weather in Tulsa — Graph


Tulsa temperature yesterday

Maximum temperature yesterday: 41 °F (at 1:53 PM)
Minimum temperature yesterday: 37 °F (at 1:53 AM)
Average temperature yesterday: 39 °F

Past Weeks' High & Low Weather Summary

High70 °F (Nov 17, 4:04 AM)100% (Nov 16, 7:53 AM)30.39 "Hg (Nov 16, 7:53 AM)
Low29 °F (Nov 22, 12:53 AM)25% (Nov 23, 3:53 PM)29.41 "Hg (Nov 17, 4:53 PM)
Average50 °F74%30.05 "Hg
* Reported Nov 15 2:53 AM — Nov 30 2:53 AM, Tulsa, Weather by CustomWeather, © 2015

Note: Actual official high and low records may vary slightly from our data, if they occured in-between our weather recording intervals... More about our weather records


Tulsa weather history for previous 24 hours

Time TempWeatherWind HumidityBarometerVisibility
2:53 AM
Mon, Nov 30
41 °FDrizzle. Fog.6 mph100%30.04 "Hg3 mi
1:53 AM41 °FDrizzle. Fog.5 mph96%30.06 "Hg6 mi
12:53 AM41 °FDrizzle. Fog.5 mph96%30.08 "Hg6 mi
11:53 PM
Sun, Nov 29
41 °FLow clouds.No wind96%30.10 "Hg10 mi
10:53 PM41 °FLow clouds.6 mph96%30.12 "Hg10 mi
9:53 PM41 °FLow clouds.5 mph96%30.13 "Hg10 mi
8:53 PM41 °FLow clouds.6 mph93%30.14 "Hg10 mi
7:53 PM41 °FMostly cloudy.5 mph93%30.14 "Hg10 mi
6:53 PM40 °FLow clouds.6 mph97%30.16 "Hg10 mi
5:53 PM40 °FMostly cloudy.7 mph97%30.16 "Hg10 mi
4:53 PM41 °FLow clouds.6 mph93%30.15 "Hg10 mi
3:53 PM40 °FLow clouds.7 mph97%30.17 "Hg10 mi
2:53 PM40 °FLow clouds.10 mph97%30.12 "Hg10 mi
1:53 PM41 °FLow clouds.8 mph93%30.15 "Hg10 mi
12:53 PM40 °FLow clouds.8 mph97%30.19 "Hg9 mi
11:53 AM40 °FLight rain. Fog.8 mph97%30.22 "Hg2 mi
10:53 AM39 °FLight rain. Fog.6 mph96%30.22 "Hg2 mi
9:53 AM39 °FLight rain. Fog.9 mph96%30.27 "Hg2 mi
8:53 AM38 °FFog.9 mph100%30.22 "Hg2 mi
7:56 AM38 °FDrizzle. Fog.9 mph100%30.22 "Hg2 mi
6:53 AM37 °FDrizzle. Fog.9 mph100%30.26 "Hg1 mi
5:53 AM37 °FDrizzle. Fog.13 mph100%30.22 "Hg1 mi
4:53 AM38 °FDrizzle. Fog.9 mph97%30.24 "Hg4 mi
Weather by CustomWeather, © 2015

See weather overviewHow to use our weather pages